Langdon, ND

3:36 PM CST on December 10, 2016 (GMT -0600)
Langdon

Weather History for KD55 - September, 2012

Change the Weather History Date:

Tuesday, September 4, 2012

  Actual Average (KDVL) Record (KDVL)
Temperature  
Mean Temperature 61 °F -  
Max Temperature 80 °F 75 °F 95 °F (1948)
Min Temperature 42 °F 49 °F 36 °F (1962)
Degree Days  
Heating Degree Days 4    
Growing Degree Days 11 (Base 50)    
Moisture  
Dew Point 45 °F    
Average Humidity 62    
Maximum Humidity 100    
Minimum Humidity 23    
Precipitation  
Precipitation 0.00 in - - ()
Sea Level Pressure  
Sea Level Pressure 29.83 in    
Wind  
Wind Speed 7 mph (West)    
Max Wind Speed 23 mph    
Max Gust Speed 32 mph    
Visibility 9 miles    
Events Fog    
Averages and records for this station are not official NWS values.
T = Trace of Precipitation, MM = Missing Value Source: NWS Daily Summary

Daily Weather History Graph

Daily Weather History Graph

Search for Another Location

Airport or City:

Trip Planner

Search our weather history database for the weather conditions in past years. The results will help you decide how hot, cold, wet, or windy it might be!

Date:

Astronomy

Sep. 04, 2012 Rise Set
Actual Time 6:55 AM CDT 8:08 PM CDT
Civil Twilight 6:23 AM CDT 8:40 PM CDT
Nautical Twilight 5:43 AM CDT 9:19 PM CDT
Astronomical Twilight 5:01 AM CDT 10:01 PM CDT
Moon 9:33 PM CDT (9/4) 11:30 AM CDT (9/4)
Length of Visible Light 14h 17m
Length of Day
13h 12m
Waning Gibbous, 83% of the Moon is Illuminated
Sep 4
Waning Gibbous
Sep 8
Last Quarter
Sep 15
New
Sep 22
First Quarter
Sep 29
Full

Hourly Weather History & Observations

Time (CDT) Temp. Windchill Dew Point Humidity Pressure Visibility Wind Dir Wind Speed Gust Speed Precip Events Conditions
12:15 AM 53.6 °F - 51.8 °F 94% 29.89 in 10.0 mi SSW 4.6 mph - N/A   Clear
12:35 AM 50.0 °F - 50.0 °F 100% 29.89 in 10.0 mi Calm Calm - N/A   Clear
12:55 AM 51.8 °F - 51.8 °F 100% 29.88 in 10.0 mi Calm Calm - N/A   Clear
1:15 AM 51.8 °F - 51.8 °F 100% 29.88 in 10.0 mi SSW 3.5 mph - N/A   Clear
1:35 AM 50.0 °F - 48.2 °F 94% 29.88 in 10.0 mi South 3.5 mph - N/A   Clear
1:55 AM 48.2 °F - 48.2 °F 100% 29.88 in 10.0 mi South 3.5 mph - N/A   Clear
2:15 AM 48.2 °F - 46.4 °F 93% 29.88 in 10.0 mi Calm Calm - N/A   Clear
2:35 AM 48.2 °F - 48.2 °F 100% 29.87 in 10.0 mi SSE 3.5 mph - N/A   Clear
2:55 AM 48.2 °F - 48.2 °F 100% 29.87 in 10.0 mi Calm Calm - N/A   Clear
3:15 AM 50.0 °F - 50.0 °F 100% 29.86 in 10.0 mi Calm Calm - N/A   Clear
3:35 AM 48.2 °F - 48.2 °F 100% 29.86 in 4.0 mi Calm Calm - N/A   Clear
3:55 AM 46.4 °F - 46.4 °F 100% 29.86 in 1.2 mi Calm Calm - N/A   Clear
4:15 AM 46.4 °F - 46.4 °F 100% 29.86 in 4.0 mi Calm Calm - N/A   Clear
4:55 AM 46.4 °F - 46.4 °F 100% 29.85 in 10.0 mi Calm Calm - N/A   Clear
5:15 AM 46.4 °F - 46.4 °F 100% 29.85 in 3.0 mi Calm Calm - N/A   Clear
5:35 AM 44.6 °F 43.1 °F 44.6 °F 100% 29.85 in 0.5 mi ESE 3.5 mph - N/A Fog Fog
5:55 AM 44.6 °F 42.2 °F 44.6 °F 100% 29.85 in 1.2 mi SE 4.6 mph - N/A   Clear
6:15 AM 44.6 °F 43.1 °F 44.6 °F 100% 29.85 in 0.2 mi SSE 3.5 mph - N/A Fog Fog
6:35 AM 42.8 °F 40.1 °F 42.8 °F 100% 29.85 in 0.2 mi East 4.6 mph - N/A Fog Fog
6:55 AM 42.8 °F 40.1 °F 42.8 °F 100% 29.85 in 0.2 mi ESE 4.6 mph - N/A Fog Fog
7:15 AM 44.6 °F 42.2 °F 44.6 °F 100% 29.85 in 0.2 mi ESE 4.6 mph - N/A Fog Fog
7:35 AM 46.4 °F 44.3 °F 46.4 °F 100% 29.84 in 2.5 mi ESE 4.6 mph - N/A   Clear
7:55 AM 48.2 °F - 48.2 °F 100% 29.84 in 10.0 mi ESE 4.6 mph - N/A   Clear
8:15 AM 51.8 °F - 51.8 °F 100% 29.84 in 10.0 mi ESE 5.8 mph - N/A   Clear
8:35 AM 55.4 °F - 55.4 °F 100% 29.84 in 10.0 mi ESE 4.6 mph - N/A   Clear
8:55 AM 60.8 °F - 57.2 °F 88% 29.84 in 10.0 mi SE 6.9 mph - N/A   Clear
9:15 AM 64.4 °F - 53.6 °F 68% 29.83 in 10.0 mi SSE 8.1 mph - N/A   Clear
9:35 AM 66.2 °F - 51.8 °F 60% 29.83 in 10.0 mi South 8.1 mph - N/A   Clear
9:55 AM 68.0 °F - 51.8 °F 56% 29.83 in 10.0 mi South 10.4 mph - N/A   Clear
10:15 AM 68.0 °F - 53.6 °F 60% 29.82 in 10.0 mi SSW 11.5 mph - N/A   Clear
10:35 AM 68.0 °F - 53.6 °F 60% 29.82 in 10.0 mi South 11.5 mph - N/A   Clear
10:55 AM 71.6 °F - 51.8 °F 50% 29.81 in 10.0 mi SSW 12.7 mph - N/A   Clear
11:15 AM 71.6 °F - 53.6 °F 53% 29.80 in 10.0 mi SSW 13.8 mph - N/A   Clear
11:35 AM 73.4 °F - 51.8 °F 47% 29.80 in 10.0 mi SSW 18.4 mph - N/A   Clear
11:55 AM 73.4 °F - 51.8 °F 47% 29.80 in 10.0 mi SW 18.4 mph 21.9 mph N/A   Clear
12:15 PM 73.4 °F - 50.0 °F 44% 29.80 in 10.0 mi SW 18.4 mph 21.9 mph N/A   Clear
12:35 PM 75.2 °F - 50.0 °F 41% 29.80 in 10.0 mi WSW 18.4 mph - N/A   Clear
12:55 PM 75.2 °F - 50.0 °F 41% 29.80 in 10.0 mi West 20.7 mph 24.2 mph N/A   Clear
1:15 PM 75.2 °F - 53.6 °F 47% 29.79 in 10.0 mi WNW 17.3 mph 21.9 mph N/A   Clear
1:35 PM 75.2 °F - 53.6 °F 47% 29.79 in 10.0 mi WNW 17.3 mph 24.2 mph N/A   Clear
1:55 PM 77.0 °F - 51.8 °F 41% 29.78 in 10.0 mi WNW 12.7 mph 20.7 mph N/A   Clear
2:15 PM 77.0 °F - 50.0 °F 39% 29.78 in 10.0 mi WNW 11.5 mph 18.4 mph N/A   Clear
2:35 PM 78.8 °F - 44.6 °F 30% 29.77 in 10.0 mi West 13.8 mph 20.7 mph N/A   Clear
2:55 PM 80.6 °F - 42.8 °F 26% 29.77 in 10.0 mi West 23.0 mph 32.2 mph N/A   Clear
3:15 PM 78.8 °F - 44.6 °F 30% 29.78 in 10.0 mi West 16.1 mph 27.6 mph N/A   Clear
3:35 PM 78.8 °F - 41.0 °F 26% 29.78 in 10.0 mi WNW 23.0 mph 28.8 mph N/A   Clear
3:55 PM 78.8 °F - 39.2 °F 24% 29.77 in 10.0 mi WNW 21.9 mph 32.2 mph N/A   Clear
4:15 PM 78.8 °F - 39.2 °F 24% 29.78 in 10.0 mi NW 18.4 mph 28.8 mph N/A   Clear
4:35 PM 78.8 °F - 37.4 °F 23% 29.78 in 10.0 mi WNW 20.7 mph 29.9 mph N/A   Clear
5:15 PM 77.0 °F - 37.4 °F 24% 29.78 in 10.0 mi NW 19.6 mph 27.6 mph N/A   Clear
5:35 PM 77.0 °F - 37.4 °F 24% 29.79 in 10.0 mi NW 17.3 mph 31.1 mph N/A   Clear
5:55 PM 75.2 °F - 37.4 °F 25% 29.79 in 10.0 mi NW 20.7 mph 26.5 mph N/A   Clear
6:15 PM 75.2 °F - 37.4 °F 25% 29.80 in 10.0 mi NW 18.4 mph 26.5 mph N/A   Clear
6:35 PM 73.4 °F - 37.4 °F 27% 29.80 in 10.0 mi NW 18.4 mph 23.0 mph N/A   Clear
6:55 PM 73.4 °F - 37.4 °F 27% 29.81 in 10.0 mi WNW 15.0 mph 25.3 mph N/A   Clear
7:15 PM 71.6 °F - 37.4 °F 29% 29.81 in 10.0 mi WNW 15.0 mph - N/A   Clear
7:35 PM 71.6 °F - 37.4 °F 29% 29.81 in 10.0 mi WNW 11.5 mph - N/A   Clear
7:55 PM 68.0 °F - 37.4 °F 33% 29.82 in 10.0 mi NW 9.2 mph - N/A   Clear
8:15 PM 64.4 °F - 39.2 °F 40% 29.82 in 10.0 mi NW 8.1 mph - N/A   Clear
8:35 PM 64.4 °F - 37.4 °F 37% 29.82 in 10.0 mi NW 9.2 mph - N/A   Clear
8:55 PM 62.6 °F - 37.4 °F 39% 29.83 in 10.0 mi WNW 9.2 mph - N/A   Clear
9:15 PM 62.6 °F - 39.2 °F 42% 29.82 in 10.0 mi NW 11.5 mph - N/A   Clear
9:35 PM 59.0 °F - 39.2 °F 48% 29.83 in 10.0 mi NW 9.2 mph - N/A   Clear
10:15 PM 59.0 °F - 39.2 °F 48% 29.84 in 10.0 mi WNW 9.2 mph - N/A   Scattered Clouds
10:35 PM 55.4 °F - 39.2 °F 54% 29.84 in 10.0 mi West 9.2 mph - N/A   Scattered Clouds
10:55 PM 53.6 °F - 37.4 °F 54% 29.83 in 10.0 mi WNW 6.9 mph - N/A   Clear
11:15 PM 51.8 °F - 37.4 °F 58% 29.84 in 10.0 mi West 9.2 mph - N/A   Clear
11:35 PM 55.4 °F - 35.6 °F 47% 29.84 in 10.0 mi WNW 11.5 mph - N/A   Clear
11:55 PM 55.4 °F - 35.6 °F 47% 29.84 in 10.0 mi WNW 13.8 mph - N/A   Clear